QPF
0.00 0.00 0.00 0.00 0.01 0.04 0.02 0.04 0.06 0.05 0.07 0.05 0.03 0.02 0.04 0.11 0.02 0.00 0.00 0.00 0.00 0.01 0.00 0.00 0.00 0.00 0.00 0.00 0.00 0.00 0.00 0.00 0.00 0.00 0.00 0.00 0.00 0.00 0.00 0.00 0.00 0.00 0.00
0.00 0.00 0.00 0.00 0.00 0.01 0.02 0.00 0.02 0.05 0.10 0.03 0.00 0.00 0.01 0.02 0.02 0.00 0.00 0.00 0.00 0.00 0.01 0.00 0.00 0.00 0.00 0.00 0.00 0.00 0.00 0.00 0.00 0.00 0.00 0.00 0.00 0.00 0.00 0.00 0.00 0.00 0.00
0.00 0.00 0.00 0.00 0.00 0.00 0.00 0.00 0.00 0.04 0.05 0.01 0.00 0.00 0.00 0.01 0.05 0.01 0.00 0.00 0.00 0.00 0.00 0.00 0.01 0.01 0.00 0.00 0.00 0.00 0.00 0.00 0.00 0.00 0.00 0.00 0.00 0.00 0.00 0.00 0.00 0.00 0.00
0.00 0.00 0.00 0.00 0.00 0.00 0.00 0.00 0.00 0.03 0.05 0.00 0.00 0.00 0.00 0.00 0.04 0.07 0.00 0.00 0.00 0.00 0.00 0.00 0.00 0.01 0.00 0.00 0.00 0.00 0.00 0.00 0.00 0.00 0.00 0.00 0.00 0.00 0.00 0.00 0.00 0.00 0.00
0.00 0.00 0.00 0.00 0.00 0.00 0.00 0.00 0.00 0.01 0.02 0.01 0.00 0.00 0.00 0.00 0.03 0.07 0.02 0.00 0.00 0.00 0.00 0.00 0.01 0.01 0.01 0.00 0.00 0.00 0.00 0.00 0.00 0.00 0.00 0.00 0.00 0.00 0.00 0.00 0.00 0.00 0.00
0.00 0.00 0.00 0.00 0.00 0.00 0.00 0.00 0.00 0.00 0.01 0.01 0.00 0.00 0.00 0.00 0.02 0.08 0.05 0.00 0.00 0.00 0.00 0.00 0.00 0.00 0.00 0.00 0.00 0.00 0.00 0.00 0.00 0.00 0.00 0.00 0.00 0.00 0.00 0.00 0.00 0.00 0.00
0.00 0.00 0.00 0.00 0.00 0.00 0.00 0.00 0.00 0.00 0.01 0.00 0.00 0.02 0.01 0.00 0.01 0.05 0.08 0.02 0.00 0.00 0.00 0.00 0.00 0.00 0.00 0.00 0.01 0.00 0.00 0.00 0.00 0.00 0.00 0.00 0.00 0.00 0.00 0.00 0.00 0.00 0.00
0.00 0.00 0.00 0.00 0.00 0.00 0.00 0.00 0.00 0.00 0.01 0.01 0.00 0.00 0.01 0.00 0.00 0.02 0.07 0.05 0.01 0.00 0.00 0.00 0.00 0.00 0.00 0.00 0.00 0.00 0.00 0.00 0.01 0.00 0.00 0.00 0.00 0.00 0.00 0.00 0.00 0.00 0.00
0.00 0.00 0.00 0.00 0.00 0.00 0.00 0.00 0.00 0.00 0.00 0.01 0.00 0.00 0.00 0.00 0.00 0.02 0.04 0.07 0.02 0.00 0.00 0.00 0.00 0.00 0.00 0.00 0.00 0.00 0.00 0.00 0.01 0.00 0.00 0.00 0.00 0.00 0.00 0.00 0.00 0.00 0.00
0.00 0.00 0.00 0.00 0.00 0.00 0.00 0.00 0.00 0.00 0.00 0.01 0.00 0.00 0.00 0.00 0.00 0.00 0.02 0.06 0.05 0.01 0.00 0.00 0.00 0.00 0.00 0.00 0.00 0.00 0.00 0.00 0.00 0.00 0.00 0.00 0.00 0.00 0.00 0.00 0.00 0.00 0.00
0.00 0.00 0.00 0.00 0.00 0.00 0.00 0.00 0.00 0.00 0.00 0.00 0.00 0.00 0.00 0.00 0.00 0.00 0.00 0.01 0.04 0.02 0.00 0.00 0.00 0.00 0.00 0.00 0.00 0.00 0.00 0.00 0.00 0.00 0.00 0.00 0.00 0.00 0.00 0.00 0.00 0.00 0.00
0.00 0.00 0.00 0.00 0.01 0.00 0.00 0.00 0.00 0.00 0.00 0.00 0.00 0.01 0.00 0.00 0.00 0.00 0.00 0.00 0.01 0.01 0.00 0.00 0.00 0.00 0.00 0.00 0.00 0.00 0.00 0.00 0.00 0.00 0.00 0.00 0.00 0.00 0.00 0.00 0.00 0.00 0.00
0.00 0.00 0.00 0.00 0.00 0.00 0.00 0.00 0.00 0.00 0.00 0.00 0.00 0.00 0.00 0.00 0.00 0.00 0.00 0.00 0.00 0.01 0.01 0.00 0.00 0.00 0.00 0.00 0.00 0.00 0.00 0.00 0.00 0.00 0.00 0.00 0.00 0.00 0.00 0.00 0.00 0.00 0.00
0.00 0.00 0.00 0.00 0.00 0.00 0.00 0.00 0.00 0.00 0.00 0.00 0.00 0.00 0.00 0.01 0.01 0.00 0.00 0.00 0.01 0.02 0.04 0.01 0.00 0.00 0.00 0.00 0.00 0.00 0.00 0.00 0.00 0.00 0.00 0.00 0.00 0.00 0.00 0.00 0.00 0.00 0.00
0.00 0.00 0.00 0.00 0.00 0.00 0.00 0.00 0.00 0.00 0.00 0.00 0.00 0.00 0.01 0.01 0.00 0.00 0.00 0.00 0.00 0.01 0.02 0.03 0.01 0.00 0.00 0.00 0.00 0.00 0.00 0.00 0.00 0.00 0.00 0.00 0.00 0.00 0.00 0.00 0.00 0.00 0.00
0.01 0.00 0.00 0.00 0.00 0.00 0.00 0.00 0.00 0.00 0.00 0.00 0.00 0.00 0.00 0.00 0.00 0.00 0.00 0.00 0.00 0.01 0.01 0.02 0.02 0.01 0.00 0.00 0.00 0.00 0.00 0.00 0.00 0.00 0.00 0.00 0.00 0.00 0.00 0.00 0.00 0.00 0.00
0.00 0.00 0.00 0.00 0.00 0.00 0.00 0.00 0.00 0.00 0.00 0.00 0.00 0.00 0.00 0.00 0.00 0.00 0.00 0.00 0.00 0.00 0.01 0.01 0.03 0.02 0.00 0.00 0.00 0.00 0.00 0.00 0.00 0.00 0.00 0.00 0.00 0.00 0.00 0.00 0.00 0.00 0.00
0.00 0.00 0.00 0.00 0.00 0.00 0.00 0.00 0.00 0.00 0.00 0.00 0.00 0.00 0.00 0.00 0.00 0.00 0.00 0.01 0.01 0.01 0.00 0.01 0.00 0.00 0.00 0.00 0.00 0.00 0.00 0.00 0.00 0.00 0.00 0.00 0.00 0.00 0.00 0.00 0.00 0.00 0.00
0.00 0.00 0.00 0.00 0.00 0.00 0.00 0.00 0.00 0.00 0.00 0.00 0.00 0.00 0.00 0.00 0.00 0.00 0.00 0.00 0.01 0.03 0.03 0.01 0.01 0.00 0.00 0.00 0.00 0.00 0.00 0.00 0.00 0.00 0.00 0.00 0.00 0.00 0.00 0.00 0.00 0.00 0.00
0.00 0.00 0.00 0.00 0.00 0.00 0.00 0.00 0.00 0.00 0.00 0.00 0.00 0.00 0.00 0.00 0.00 0.00 0.00 0.00 0.01 0.02 0.04 0.07 0.04 0.02 0.02 0.02 0.01 0.00 0.00 0.00 0.00 0.00 0.00 0.00 0.00 0.00 0.00 0.00 0.00 0.00 0.00
0.00 0.00 0.00 0.00 0.00 0.00 0.00 0.00 0.00 0.00 0.00 0.00 0.00 0.00 0.00 0.00 0.00 0.00 0.00 0.00 0.00 0.01 0.02 0.04 0.07 0.07 0.09 0.08 0.04 0.06 0.02 0.04 0.03 0.01 0.01 0.00 0.00 0.00 0.00 0.00 0.00 0.00 0.00
0.00 0.00 0.00 0.00 0.00 0.00 0.00 0.00 0.00 0.00 0.00 0.00 0.00 0.00 0.00 0.00 0.00 0.00 0.00 0.00 0.00 0.00 0.00 0.01 0.03 0.03 0.08 0.09 0.09 0.06 0.08 0.14 0.12 0.12 0.10 0.08 0.05 0.02 0.01 0.00 0.00 0.00 0.00
0.00 0.00 0.00 0.00 0.00 0.00 0.00 0.00 0.00 0.00 0.00 0.00 0.00 0.00 0.00 0.00 0.00 0.00 0.00 0.00 0.00 0.00 0.00 0.01 0.01 0.01 0.01 0.02 0.04 0.06 0.05 0.10 0.11 0.06 0.06 0.06 0.10 0.07 0.01 0.00 0.00 0.00 0.00
0.00 0.00 0.00 0.00 0.00 0.00 0.00 0.00 0.00 0.00 0.00 0.00 0.00 0.00 0.00 0.00 0.00 0.00 0.00 0.00 0.00 0.00 0.00 0.00 0.00 0.00 0.00 0.00 0.01 0.02 0.02 0.02 0.02 0.03 0.05 0.08 0.07 0.10 0.08 0.06 0.06 0.00 0.00
0.00 0.00 0.00 0.00 0.00 0.00 0.00 0.00 0.00 0.00 0.00 0.00 0.00 0.00 0.00 0.00 0.00 0.00 0.00 0.00 0.00 0.00 0.00 0.00 0.00 0.00 0.00 0.00 0.00 0.00 0.00 0.01 0.01 0.01 0.01 0.01 0.00 0.01 0.05 0.07 0.11 0.05 0.00
0.00 0.00 0.00 0.00 0.00 0.00 0.00 0.00 0.00 0.00 0.00 0.00 0.00 0.00 0.00 0.00 0.00 0.00 0.00 0.00 0.00 0.00 0.00 0.00 0.00 0.00 0.00 0.00 0.00 0.00 0.00 0.00 0.00 0.00 0.00 0.00 0.00 0.00 0.01 0.05 0.04 0.02 0.00
MSLP
1023.00 1022.69 1021.79 1021.07 1020.42 1019.97 1019.37 1018.55 1017.90 1017.36 1017.42 1017.87 1018.39 1018.51 1018.83 1019.64 1019.18 1019.25 1019.51 1020.13 1020.61 1021.09 1021.55 1021.95 1022.33 1022.74 1023.15 1023.62 1024.02 1024.42 1024.87 1025.33 1025.81 1026.21 1026.56 1026.84 1027.15 1027.42 1027.66 1027.91 1028.09 1028.29 1028.48
1023.16 1022.90 1022.16 1021.49 1020.90 1020.39 1019.78 1019.12 1018.46 1017.79 1017.19 1017.89 1018.40 1018.69 1019.21 1019.68 1019.39 1019.44 1019.39 1020.27 1020.74 1021.11 1021.49 1021.91 1022.31 1022.72 1023.15 1023.60 1024.11 1024.46 1024.86 1025.29 1025.81 1026.34 1026.67 1026.99 1027.22 1027.55 1027.82 1028.12 1028.40 1028.57 1028.73
1022.84 1022.57 1022.54 1022.07 1021.24 1020.63 1020.01 1019.31 1018.31 1017.88 1017.71 1017.74 1018.35 1018.71 1019.21 1019.73 1019.49 1019.41 1019.36 1020.26 1020.86 1021.20 1021.50 1021.93 1022.34 1022.66 1023.14 1023.63 1024.12 1024.48 1024.82 1025.27 1025.68 1026.22 1026.68 1027.04 1027.31 1027.61 1027.95 1028.29 1028.53 1028.73 1028.88
1022.80 1022.63 1022.69 1022.10 1021.47 1021.02 1020.44 1019.82 1018.64 1018.31 1017.82 1017.60 1018.18 1018.55 1018.93 1019.19 1019.29 1019.34 1018.96 1019.87 1020.55 1021.06 1021.51 1021.84 1022.30 1022.68 1023.08 1023.61 1024.07 1024.42 1024.83 1025.23 1025.62 1026.08 1026.46 1026.96 1027.31 1027.71 1028.09 1028.39 1028.63 1028.82 1029.01
1022.75 1022.50 1022.40 1022.22 1021.88 1021.15 1020.60 1020.00 1018.97 1018.81 1017.95 1017.11 1018.03 1018.52 1018.70 1018.94 1019.25 1019.33 1019.37 1019.60 1019.91 1020.57 1021.21 1021.66 1022.13 1022.62 1023.00 1023.48 1023.97 1024.34 1024.68 1025.11 1025.50 1025.93 1026.31 1026.78 1027.18 1027.73 1028.06 1028.37 1028.63 1028.84 1029.03
1022.79 1022.51 1022.28 1022.16 1021.68 1021.08 1020.82 1020.21 1019.31 1018.63 1018.29 1017.21 1017.88 1018.43 1018.62 1018.78 1019.03 1019.68 1019.29 1019.44 1019.76 1020.03 1020.69 1021.39 1022.04 1022.55 1022.91 1023.30 1023.75 1024.19 1024.56 1024.85 1025.27 1025.77 1026.16 1026.53 1026.98 1027.46 1027.84 1028.19 1028.45 1028.78 1028.92
1022.47 1022.35 1022.28 1022.02 1021.76 1021.02 1021.07 1020.58 1019.83 1018.97 1018.07 1017.60 1018.37 1018.56 1018.86 1018.81 1019.11 1019.49 1019.32 1019.13 1019.32 1019.59 1020.24 1020.97 1021.59 1022.16 1022.73 1023.12 1023.52 1023.87 1024.27 1024.63 1025.04 1025.46 1025.93 1026.26 1026.68 1027.15 1027.46 1027.87 1028.19 1028.53 1028.73
1022.19 1022.15 1022.17 1022.01 1021.73 1021.26 1021.26 1020.50 1019.82 1019.31 1018.67 1017.54 1017.94 1018.44 1018.77 1019.00 1018.75 1019.02 1018.78 1019.00 1019.28 1019.31 1019.92 1020.62 1021.05 1021.57 1022.25 1022.80 1023.30 1023.58 1023.84 1024.18 1024.66 1025.12 1025.59 1026.03 1026.34 1026.74 1027.19 1027.49 1027.82 1028.23 1028.54
1021.90 1022.27 1022.15 1021.99 1021.65 1021.61 1021.49 1020.76 1020.34 1020.05 1019.59 1017.59 1017.29 1017.56 1018.38 1018.26 1018.28 1018.21 1018.39 1018.77 1019.13 1019.15 1019.50 1020.00 1020.53 1021.01 1021.56 1022.13 1022.61 1023.20 1023.59 1023.89 1024.19 1024.67 1025.17 1025.62 1026.02 1026.36 1026.72 1027.05 1027.42 1027.81 1028.17
1022.16 1022.18 1022.17 1022.07 1022.00 1022.04 1021.53 1020.76 1020.40 1020.19 1019.38 1018.67 1017.67 1017.16 1017.49 1017.44 1018.02 1018.45 1018.38 1018.72 1018.97 1019.02 1019.14 1019.49 1020.02 1020.62 1020.95 1021.40 1021.95 1022.44 1022.95 1023.58 1023.95 1024.28 1024.68 1025.19 1025.56 1025.90 1026.20 1026.57 1026.91 1027.18 1027.56
1022.42 1022.31 1022.28 1022.15 1021.84 1022.01 1021.72 1021.03 1020.50 1020.09 1019.69 1019.43 1018.55 1017.76 1017.79 1017.65 1017.90 1017.97 1018.32 1018.65 1018.91 1018.91 1019.06 1019.03 1019.53 1019.82 1020.05 1020.52 1021.23 1021.85 1022.33 1022.90 1023.49 1023.95 1024.33 1024.72 1025.17 1025.55 1025.86 1026.10 1026.40 1026.75 1027.00
1022.74 1022.54 1022.34 1022.12 1021.88 1021.68 1021.35 1020.86 1020.70 1020.02 1019.61 1019.00 1018.77 1018.35 1017.24 1017.25 1017.52 1017.66 1018.11 1018.29 1018.38 1018.57 1018.79 1018.93 1019.06 1019.43 1019.81 1020.11 1020.47 1021.13 1021.80 1022.28 1022.83 1023.31 1023.81 1024.31 1024.63 1025.06 1025.49 1025.81 1026.02 1026.21 1026.45
1022.94 1022.81 1022.26 1021.88 1021.69 1021.44 1021.55 1021.33 1020.91 1020.36 1019.90 1018.99 1018.14 1018.16 1017.58 1016.69 1016.99 1017.49 1018.03 1018.23 1018.31 1018.21 1018.47 1018.58 1018.49 1018.81 1019.26 1019.69 1019.92 1020.41 1021.11 1021.70 1022.24 1022.78 1023.23 1023.71 1024.20 1024.60 1024.95 1025.27 1025.57 1025.81 1025.91
1023.22 1022.62 1022.14 1021.65 1021.51 1021.50 1021.58 1021.31 1020.79 1020.39 1019.21 1018.72 1017.88 1018.21 1017.55 1016.48 1016.72 1017.03 1017.35 1017.83 1018.33 1018.35 1018.08 1017.82 1017.94 1018.19 1018.65 1018.97 1019.33 1019.88 1020.58 1021.29 1021.82 1022.31 1022.77 1023.20 1023.57 1023.99 1024.36 1024.71 1025.01 1025.25 1025.46
1023.05 1022.56 1022.13 1021.82 1021.63 1021.52 1021.29 1021.08 1020.75 1020.07 1019.71 1018.88 1018.62 1018.07 1017.39 1016.33 1016.45 1016.89 1017.04 1017.06 1017.38 1017.76 1017.75 1017.53 1017.53 1017.47 1017.97 1018.38 1018.71 1019.33 1019.79 1020.61 1021.19 1021.76 1022.25 1022.72 1023.09 1023.44 1023.77 1024.07 1024.34 1024.62 1024.93
1023.06 1022.50 1022.10 1021.88 1021.85 1021.62 1021.22 1021.02 1020.58 1019.93 1019.47 1018.77 1018.47 1018.40 1017.36 1016.72 1016.41 1016.75 1016.84 1017.08 1017.28 1017.53 1017.66 1017.18 1017.15 1017.04 1017.18 1017.69 1018.19 1018.63 1019.09 1019.85 1020.58 1021.10 1021.63 1022.10 1022.49 1022.82 1023.15 1023.43 1023.67 1023.95 1024.23
1023.25 1022.75 1022.31 1022.08 1022.03 1021.84 1021.44 1021.09 1020.55 1020.37 1019.62 1018.90 1019.08 1019.09 1018.42 1017.56 1017.02 1016.85 1016.65 1016.99 1017.31 1017.60 1017.73 1017.24 1017.28 1017.37 1017.29 1017.46 1017.95 1018.47 1018.59 1019.22 1019.86 1020.41 1020.86 1021.34 1021.78 1022.09 1022.38 1022.72 1023.02 1023.28 1023.57
1023.43 1022.87 1022.39 1022.26 1022.22 1022.28 1022.14 1021.61 1020.94 1020.59 1020.01 1019.65 1020.61 1019.73 1019.21 1018.42 1017.91 1017.81 1017.64 1017.67 1017.52 1017.39 1017.60 1017.50 1017.34 1017.53 1017.70 1017.62 1017.99 1018.41 1018.52 1018.42 1018.86 1019.55 1019.93 1020.41 1020.83 1021.25 1021.57 1021.86 1022.18 1022.50 1022.74
1023.40 1022.85 1022.48 1022.24 1022.26 1022.42 1022.25 1021.92 1021.36 1020.88 1019.90 1021.00 1021.13 1020.84 1020.26 1019.24 1019.20 1018.92 1018.36 1018.45 1018.16 1017.96 1017.06 1017.16 1017.36 1017.26 1017.58 1017.78 1018.24 1018.41 1018.65 1018.55 1018.74 1019.13 1019.57 1019.95 1020.29 1020.65 1020.91 1021.14 1021.48 1021.83 1022.07
1023.27 1022.84 1022.57 1022.33 1022.37 1022.66 1022.68 1022.21 1021.47 1021.10 1021.30 1021.56 1021.07 1021.15 1020.79 1020.10 1019.81 1019.81 1019.23 1019.26 1018.76 1018.28 1017.73 1017.40 1017.43 1017.33 1017.41 1017.69 1017.72 1018.41 1018.81 1018.61 1018.69 1018.49 1018.99 1019.35 1019.79 1020.16 1020.32 1020.61 1020.80 1021.14 1021.25
1023.23 1022.86 1022.73 1022.53 1022.64 1023.01 1023.19 1022.95 1022.47 1021.84 1021.73 1021.77 1021.15 1021.75 1021.46 1020.93 1020.59 1020.64 1019.83 1020.18 1019.52 1019.06 1018.64 1017.78 1017.59 1017.80 1017.73 1017.88 1017.33 1017.82 1018.33 1018.45 1018.21 1018.13 1018.50 1018.68 1019.22 1019.53 1019.60 1019.83 1019.96 1020.21 1020.49
1023.38 1023.10 1022.97 1022.71 1023.13 1023.45 1023.81 1023.31 1022.86 1022.29 1021.98 1022.01 1021.97 1022.01 1021.41 1021.48 1021.37 1021.16 1020.47 1020.05 1020.44 1020.33 1019.85 1019.43 1018.88 1018.13 1018.35 1018.61 1018.26 1018.14 1018.04 1018.19 1017.97 1017.50 1017.98 1018.14 1018.36 1018.71 1018.48 1018.66 1018.80 1019.21 1019.63
1023.43 1023.28 1023.16 1023.10 1023.49 1023.87 1023.97 1023.74 1023.43 1022.88 1022.76 1022.97 1022.83 1022.64 1022.10 1021.81 1021.75 1021.86 1021.18 1020.93 1020.38 1020.99 1021.48 1020.46 1020.18 1020.44 1020.01 1020.05 1019.59 1018.87 1018.43 1018.40 1018.21 1018.23 1018.00 1017.87 1017.85 1018.03 1017.69 1017.85 1018.18 1018.63 1019.16
1023.43 1023.32 1023.26 1023.38 1023.56 1024.16 1024.06 1023.77 1023.52 1023.00 1022.82 1022.95 1023.07 1022.98 1022.61 1022.42 1021.97 1022.08 1021.76 1021.13 1021.21 1021.44 1021.56 1021.16 1021.55 1021.62 1021.58 1021.31 1020.69 1019.87 1019.49 1019.20 1018.94 1019.09 1019.27 1018.48 1017.69 1017.83 1017.47 1017.61 1017.99 1018.52 1019.03
1023.60 1023.37 1023.31 1023.52 1023.74 1024.12 1024.16 1023.90 1023.42 1023.04 1022.71 1023.11 1023.62 1023.77 1023.27 1023.11 1022.76 1022.20 1022.24 1021.97 1021.76 1021.95 1021.95 1022.05 1022.00 1021.92 1021.92 1021.39 1020.55 1019.92 1019.69 1019.33 1019.28 1019.97 1020.47 1020.20 1019.10 1018.69 1018.14 1018.17 1018.47 1019.53 1019.66
1023.44 1023.53 1023.51 1023.58 1023.92 1024.19 1024.33 1024.09 1023.78 1023.24 1022.73 1022.74 1023.73 1023.64 1024.16 1024.17 1023.67 1022.85 1022.65 1022.24 1022.37 1022.53 1022.14 1022.09 1021.97 1021.85 1021.75 1021.25 1021.41 1020.88 1020.53 1020.10 1020.00 1020.69 1021.49 1021.27 1020.50 1019.92 1019.23 1019.62 1019.76 1020.02 1020.11
Thickness
5575 5585 5597 5607 5618 5627 5636 5647 5655 5663 5667 5666 5665 5667 5669 5666 5673 5678 5681 5679 5679 5678 5677 5677 5676 5675 5674 5673 5671 5670 5668 5667 5665 5663 5662 5661 5660 5658 5657 5655 5654 5653 5651
5561 5572 5585 5596 5606 5616 5626 5637 5646 5657 5666 5662 5661 5663 5663 5663 5669 5673 5678 5675 5675 5676 5676 5675 5675 5674 5672 5671 5669 5668 5667 5666 5664 5662 5661 5660 5659 5657 5656 5654 5652 5651 5649
5552 5562 5572 5583 5595 5605 5616 5629 5642 5650 5656 5660 5658 5659 5659 5659 5665 5669 5674 5671 5671 5673 5673 5673 5672 5673 5671 5669 5668 5667 5666 5664 5663 5662 5660 5659 5658 5657 5655 5653 5652 5650 5648
5538 5548 5559 5572 5584 5593 5604 5617 5633 5642 5652 5659 5656 5657 5658 5660 5664 5665 5672 5670 5670 5670 5670 5671 5670 5670 5669 5667 5666 5665 5664 5663 5662 5661 5660 5659 5657 5655 5653 5652 5651 5649 5647
5524 5537 5549 5560 5571 5584 5594 5608 5621 5631 5645 5657 5653 5652 5656 5658 5659 5660 5663 5667 5670 5670 5669 5669 5669 5668 5667 5666 5665 5664 5664 5662 5661 5660 5660 5658 5656 5654 5653 5651 5650 5649 5647
5508 5524 5537 5550 5563 5574 5585 5598 5613 5625 5635 5649 5648 5647 5651 5654 5655 5653 5659 5662 5666 5670 5669 5668 5667 5666 5666 5665 5664 5663 5663 5662 5661 5659 5659 5658 5656 5654 5653 5652 5650 5648 5647
5494 5511 5525 5539 5552 5566 5574 5586 5601 5616 5630 5639 5633 5640 5643 5648 5649 5649 5652 5661 5665 5667 5668 5667 5666 5665 5664 5664 5663 5662 5662 5662 5660 5659 5658 5657 5656 5654 5654 5652 5650 5648 5647
5481 5498 5513 5527 5541 5555 5561 5579 5593 5605 5617 5632 5632 5633 5634 5639 5648 5649 5654 5658 5660 5665 5666 5665 5665 5666 5664 5662 5662 5662 5662 5662 5661 5659 5657 5656 5656 5655 5653 5652 5650 5647 5646
5469 5483 5501 5516 5532 5543 5550 5566 5579 5589 5602 5625 5634 5634 5631 5637 5644 5648 5652 5655 5655 5659 5662 5664 5665 5665 5665 5664 5663 5662 5662 5661 5661 5659 5657 5656 5655 5654 5653 5652 5650 5648 5646
5454 5472 5489 5505 5519 5528 5540 5556 5571 5582 5596 5607 5624 5634 5638 5643 5638 5636 5644 5647 5651 5654 5660 5663 5664 5664 5665 5665 5664 5664 5664 5661 5660 5659 5658 5656 5656 5654 5653 5652 5650 5649 5647
5443 5464 5480 5495 5510 5520 5532 5548 5561 5573 5585 5596 5609 5625 5629 5635 5635 5638 5635 5639 5645 5651 5656 5660 5661 5664 5666 5667 5665 5664 5664 5663 5661 5659 5658 5656 5655 5653 5652 5652 5651 5649 5647
5430 5445 5466 5483 5499 5515 5529 5543 5552 5568 5580 5592 5601 5612 5629 5631 5632 5635 5635 5638 5643 5647 5652 5654 5658 5660 5662 5665 5666 5664 5663 5663 5662 5660 5658 5656 5655 5653 5651 5650 5650 5649 5647
5414 5432 5456 5476 5493 5508 5520 5532 5544 5557 5569 5585 5599 5606 5618 5631 5632 5634 5631 5633 5637 5644 5647 5653 5658 5660 5661 5662 5664 5665 5662 5663 5662 5660 5658 5656 5654 5653 5651 5650 5649 5647 5647
5403 5425 5449 5471 5488 5501 5513 5525 5537 5549 5569 5580 5596 5599 5610 5627 5629 5631 5633 5632 5630 5635 5643 5651 5655 5658 5659 5661 5661 5662 5662 5660 5659 5658 5656 5655 5654 5653 5651 5650 5648 5647 5646
5398 5419 5441 5462 5480 5494 5509 5523 5534 5546 5559 5575 5582 5595 5606 5623 5626 5626 5629 5633 5634 5631 5637 5645 5648 5654 5655 5656 5658 5659 5660 5658 5657 5656 5654 5653 5651 5650 5649 5649 5648 5647 5645
5392 5414 5435 5455 5471 5488 5505 5518 5532 5544 5558 5570 5579 5586 5602 5613 5620 5621 5625 5626 5629 5630 5631 5642 5645 5650 5653 5650 5652 5655 5656 5655 5654 5653 5652 5651 5650 5649 5648 5647 5647 5646 5644
5386 5407 5427 5448 5465 5482 5498 5513 5527 5536 5552 5564 5569 5574 5587 5600 5609 5614 5621 5621 5622 5624 5624 5634 5636 5639 5644 5646 5646 5646 5649 5651 5649 5649 5649 5649 5648 5647 5647 5646 5645 5644 5642
5380 5401 5422 5441 5459 5473 5486 5503 5519 5529 5541 5550 5547 5560 5572 5585 5594 5599 5605 5609 5614 5618 5620 5623 5628 5631 5633 5637 5638 5639 5640 5644 5644 5645 5647 5646 5645 5645 5645 5644 5643 5643 5641
5378 5399 5420 5437 5453 5466 5481 5496 5510 5519 5536 5533 5536 5545 5556 5571 5577 5582 5592 5595 5601 5605 5616 5618 5620 5625 5627 5628 5628 5629 5631 5635 5637 5637 5639 5640 5641 5641 5642 5641 5640 5639 5640
5380 5399 5416 5435 5450 5461 5473 5488 5504 5515 5521 5523 5532 5538 5544 5557 5565 5570 5579 5583 5590 5596 5605 5611 5613 5617 5619 5619 5622 5620 5620 5625 5627 5632 5632 5633 5634 5635 5636 5636 5636 5635 5637
5387 5400 5416 5432 5445 5455 5465 5477 5490 5504 5511 5516 5528 5527 5535 5546 5552 5555 5568 5568 5577 5585 5591 5602 5607 5607 5610 5611 5619 5616 5616 5617 5622 5625 5625 5628 5626 5626 5630 5631 5631 5632 5632
5393 5406 5419 5433 5441 5450 5457 5470 5482 5495 5503 5508 5515 5519 5529 5533 5540 5544 5554 5561 5562 5567 5578 5583 5590 5601 5600 5598 5604 5606 5610 5610 5615 5619 5618 5621 5621 5620 5623 5625 5627 5626 5626
5400 5411 5422 5433 5439 5445 5453 5462 5472 5484 5491 5495 5501 5506 5514 5522 5529 5531 5541 5545 5554 5554 5555 5566 5571 5567 5575 5576 5584 5596 5602 5603 5607 5609 5613 5616 5617 5616 5618 5619 5619 5620 5619
5408 5418 5427 5435 5442 5443 5450 5458 5466 5476 5483 5488 5490 5495 5504 5509 5517 5521 5527 5534 5536 5539 5544 5550 5550 5550 5553 5558 5565 5574 5581 5585 5590 5591 5592 5602 5608 5606 5608 5611 5611 5610 5608
5419 5422 5429 5436 5441 5443 5446 5451 5459 5468 5476 5476 5476 5480 5488 5494 5499 5509 5515 5518 5521 5522 5525 5528 5533 5538 5541 5549 5558 5564 5571 5576 5586 5577 5571 5577 5587 5588 5594 5595 5596 5594 5595
5433 5432 5433 5434 5435 5440 5443 5447 5450 5457 5467 5473 5467 5472 5471 5474 5479 5490 5495 5503 5504 5504 5511 5513 5520 5524 5528 5536 5537 5544 5551 5559 5564 5561 5555 5560 5565 5570 5579 5578 5579 5580 5581